DELTA 1 DEB

Satellite information

Favourite Embed

Satellite Type and Status

DEBRISIN ORBIT

Key statistics

Satellite DELTA 1 DEB at a glance.

Uptime

17450

Days in orbit

Revolutions

≈ 13.9

Per day

Orbit

SSO

Sun Synchronous Orbit

Inclination

98.8

Latest

Satellite identification and parameters

Extended collection of information and parameters for DELTA 1 DEB.

Object identification

Identified? True

Debris? True

Object name: DELTA 1 DEB

International designator: 1978-026KB

Object number (NORAD): 37664

Object ID (CCSDS): 37664

Country: UNITED STATES OF AMERICA (US)

Current information (Y/N): Y

RCS size: SMALL

Orbital parameters

Period: 103.688 minutes

Inclination: 98.7698 deg

SMA: 7311.046 km

Apoapsis: 989.114 km

Periapsis: 876.708 km

RAAN: 185.9202 deg

Eccentricy: 0.00768741

Argument of periapsis: 87.5688 deg

Mean anomaly: 31.2656 deg

Mean motion: 13.8878013 rev/day

Mean motion (dot): 0.00000129 rev/day2

B* drag term: 0.00013695776 1/REarth

Two-line elements (TLE)

Creation date: Dec. 10, 2025, 7:58 p.m.

Reference frame: TEME

Reference center: EARTH

Epoch: Dec. 10, 2025, 9:48 a.m. UTC

TLE line 0: 0 DELTA 1 DEB

TLE line 1: 1 37664U 78026KB 25344.40869509 .00000129 00000-0 13696-3 0 9998

TLE line 2: 2 37664 98.7698 185.9202 0076874 87.5688 31.2656 13.88780130305130

Live tracking on map

Real-time ground track for satellite DELTA 1 DEB.

In-orbit conjunctions

A list of the most updated potential collisions computed for object DELTA 1 DEB.

Target Orbit TCA Probability of collision Miss distance Type
CZ-6A DEB LEO 2025-10-03 07:07:21 0.001810421 13.0 (m) DEBRIS
SL-14 R/B LEO 2025-04-13 15:48:32 0.0009133312 176.0 (m) ROCKET BODY
CZ-6A DEB LEO 2024-11-06 00:43:22 0.0001006382 392.0 (m) DEBRIS

Associated space launch

Earth observation satellite

DELTA 1 DEB was lifted into orbit during the mission ‘Delta 2910 | Landsat 3’, on board a Delta 2910 space rocket.

The launch took place on March 5, 1978, 5:54 p.m. from Space Launch Complex 2W.

For more information about the launch, click the button.

Launch to space Delta 2910 | Landsat 3
Delta 2910 | Landsat 3

Agency: N/A

Status: Launch Successful

Launch date: March 5, 1978, 5:54 p.m. UTC

Rocket: Delta 2910

Launch pad: Space Launch Complex 2W

Location: Vandenberg SFB, CA, USA

...

Latest news about this satellite

There are no fresh news available about this satellite. Check back as we update our databases every day.


Newsletter sign-up

Weekly statistics, charts and insights to help you stay on top of the space industry.